Location: Peterborough
(44.3091°N, 78.3197°W)
Time: 16:48:01
(UTC-04:00)

Explorer 7 - Pass Details

Date: 25 March 2023
Orbit: 477 x 653 km, 50.3° (Epoch: 04 June)

Event Time Altitude Azimuth Distance (km) Brightness Sun altitude
Rises 19:45:47 0° 269° (W) 2,859 13.1 -3.3°
Reaches altitude 10° 19:48:15 10° 276° (W) 1,925 11.7 -3.8°
Maximum altitude 19:52:25 41° 348° (NNW) 830 7.9 -4.5°
Drops below altitude 10° 19:56:22 10° 60° (ENE) 1,816 9.0 -5.2°
Enters shadow 19:57:58 - 66° (ENE) 2,423 9.6 -5.5°
Sets 19:58:38 0° 67° (ENE) 2,677 - -5.6°
